Regional Weather Roundup
Issued by NWS

Home | Current Version | Previous Version | Text Only | Print | Product List | Glossary Off
Versions: 1 2 3 4 5 6 7 8 9 10 11 12 13 14 15 16 17 18 19 20 21 22 23 24 25 26 27 28 29 30 31 32 33 34 35 36 37 38 39 40 41 42 43 44 45 46 47 48 49 50

000
ASUS43 KFSD 300610
RWRSD

WEATHER ROUNDUP FOR SOUTH DAKOTA
NATIONAL WEATHER SERVICE SIOUX FALLS SD
100 AM CDT WED JUL 30 2014

NOTE: "FAIR" INDICATES FEW OR NO CLOUDS BELOW 12,000 FEET WITH NO
SIGNIFICANT WEATHER AND/OR OBSTRUCTIONS TO VISIBILITY.


SDZ001>005-009-010-012>017-300700-
NORTHWEST AND NORTH CENTRAL SOUTH DAKOTA

CITY           SKY/WX    TMP DP  RH WIND       PRES   REMARKS
BUFFALO          N/A     62  51  67 W13       30.11F
FAITH            N/A     66  52  60 SE8       30.18R
MOBRIDGE       PTCLDY    62  54  74 E8        30.13S
$$

SDZ012>016-024>037-041>051-057-063-072>074-300700-
SOUTHWEST AND SOUTH CENTRAL SOUTH DAKOTA

CITY           SKY/WX    TMP DP  RH WIND       PRES   REMARKS
RAPID CTY ARPT PTCLDY    59  51  75 W7        30.21S
PIERRE         PTCLDY    61  53  75 E5        30.14S
CUSTER         MOCLDY    53  44  71 W3        30.33S
ELLSWORTH AFB  CLEAR     61  52  73 SW6       30.20S
PHILIP         CLEAR     60  49  66 CALM      30.17S
PINE RIDGE     CLOUDY    53  51  93 CALM      30.24R
WINNER         FAIR      63  50  62 S6        30.17S
$$

SDZ004>011-016>023-039-040-300700-
NORTHEAST SOUTH DAKOTA

CITY           SKY/WX    TMP DP  RH WIND       PRES   REMARKS
ABERDEEN       CLEAR     52  51  97 W3        30.14S
WATERTOWN      CLEAR     57  51  80 CALM      30.15S
SISSETON         N/A     56  54  93 CALM      30.12S
$$

SDZ017-020-022-023-036>040-048>070-300700-
SOUTHEAST SOUTH DAKOTA

CITY           SKY/WX    TMP DP  RH WIND       PRES   REMARKS
SIOUX FALLS    CLEAR     58  53  84 CALM      30.14S
HURON          CLEAR     55  53  93 CALM      30.15R
CHAMBERLAIN    CLEAR     60  52  75 CALM      30.16S
MITCHELL       CLEAR     59  54  83 NW3       30.15R
YANKTON        CLEAR     63  55  77 SW6       30.15S
$$

ABBREVIATIONS USED IN REMARKS
   TC - TEMPERATURE IN CELSIUS
  WCI - WIND CHILL INDEX
   HX - HEAT INDEX
  VSB - VISIBILITY




USA.gov is the U.S. government's official web portal to all federal, state and local government web resources and services.